Location: JAPAN
(35.1974°N, 137.0216°E)
Time: 19:06:57
(UTC+09:00)

ISS - Visible Passes

Search period start: 21 July 2018 00:00
Search period end: 31 July 2018 00:00
Orbit: 402 x 408 km, 51.6° (Epoch: 21 July)

Date Brightness Start Highest point End Pass type
(mag) Time Alt. Az. Time Alt. Az. Time Alt. Az.
21 Jul -0.5 02:21:35 10° N 02:23:36 15° NNE 02:25:37 10° ENE visible
21 Jul -3.9 03:57:06 10° NW 04:00:22 64° SW 04:03:37 10° SE visible
21 Jul -2.1 20:34:54 10° WSW 20:37:56 35° NW 20:40:59 10° NNE visible
22 Jul -0.1 01:31:01 10° NNE 01:31:11 10° NNE 01:31:20 10° NNE visible
22 Jul -3.2 03:04:59 10° NW 03:08:15 58° NE 03:11:30 10° ESE visible
22 Jul -3.6 19:42:30 10° SW 19:45:45 74° NW 19:49:01 10° NE visible
22 Jul -0.3 21:21:38 10° NW 21:22:44 11° NNW 21:23:48 10° N visible
23 Jul -1.4 02:17:30 20° E 02:17:30 20° E 02:18:58 10° E visible
23 Jul -2.6 03:50:49 16° W 03:52:23 22° SW 03:54:59 10° S visible
23 Jul -0.7 20:28:03 10° WNW 20:30:18 17° NNW 20:32:34 10° NNE visible
24 Jul -1.5 19:35:05 10° W 19:37:58 28° NW 19:40:52 10° NNE visible
26 Jul -0.7 19:28:23 10° WNW 19:30:18 15° NNW 19:32:14 10° N visible
